Overview Statistics Trail Chart Weather Telemetry Raw packets
 

This is the latest recevied weather packets stored in our database for station/object EA3GKP-10. If no packets are shown the sender has not sent any weather packets the latest 10 day(s).

<< 1 2 3 4 5 >>
Time Temp. Humidity Pressure Rain* Wind** Luminosity Snow
1788560680 23.89° C - - 0 mm 0 m/s - -
1788560374 24.44° C - - 0 mm 0 m/s - -
1788560071 24.44° C - - 0 mm 0 m/s - -
1788559763 24.44° C - - 0 mm 0 m/s - -
1788559457 24.44° C - - 0 mm 0 m/s - -
1788559152 25° C - - 0 mm 0 m/s - -
1788558849 24.44° C - - 0 mm 0 m/s - -
1788558546 24.44° C - - 0 mm 0 m/s - -
1788558241 24.44° C - - 0 mm 0 m/s - -
1788557931 24.44° C - - 0 mm 0 m/s - -
1788557625 24.44° C - - 0 mm 2.24 m/s, 4° - -
1788557320 24.44° C - - 0 mm 2.68 m/s, 302° - -
1788557017 24.44° C - - 0 mm 2.24 m/s, 342° - -
1788556711 24.44° C - - 0 mm 1.79 m/s, 264° - -
1788556405 23.89° C - - 0 mm 1.34 m/s, 315° - -
1788556100 23.89° C - - 0 mm 1.34 m/s, 329° - -
1788555796 23.89° C - - 0 mm 1.79 m/s, 345° - -
1788555492 23.89° C - - 0 mm 3.58 m/s, 321° - -
1788555186 23.33° C - - 0 mm 4.92 m/s, 277° - -
1788554882 24.44° C - - 0 mm 2.24 m/s, 273° - -
1788554578 24.44° C - - 0 mm 3.13 m/s, 278° - -
1788554272 24.44° C - - 0 mm 2.24 m/s, 297° - -
1788553664 25° C - - 0 mm 0 m/s - -
1788553359 24.44° C - - 0 mm 0.89 m/s, 35° - -
1788553063 25° C - - 0 mm 2.24 m/s, 96° - -

* Rain latest hour (hover to see other rain measurements)
** Current wind speed in m/s (hover to see current wind gust speed)